When you browse on this site, cookies collect data to enhance your experience and personalize the content and advertising you see.
Visit our Privacy Policy to learn more. By continuing to use the site, you agree to this use of cookies and data.
  • In Hungary
  • List of Countries
  • For 7 days
  • Water Temperature
  • Satellite Maps
  • Weather Map
  • News
  • Weather Widgets
  • user-avatar
    Login

    Hourly Weather Kalinka

    Today, 25 May, Saturday

    Time Temperature Precipitation Wind Pressure Humidity
    00:00 +14°C° 0 mm 2 mps 744 mmHg 93%
    01:00 +13°C° 0 mm 2 mps 744 mmHg 94%
    02:00 +13°C° 0 mm 2 mps 744 mmHg 94%
    03:00 +13°C° 0 mm 2 mps 744 mmHg 94%
    04:00 +13°C° 0 mm 2 mps 744 mmHg 95%
    05:00 +13°C° 0 mm 2 mps 744 mmHg 95%
    06:00 +14°C° 0 mm 2 mps 744 mmHg 91%
    07:00 +16°C° 0 mm 2 mps 744 mmHg 88%
    08:00 +17°C° 0 mm 3 mps 744 mmHg 84%
    09:00 +18°C° 0.2 mm 3 mps 744 mmHg 79%
    10:00 +19°C° 0.2 mm 4 mps 744 mmHg 73%
    11:00 +20°C° 0.2 mm 5 mps 744 mmHg 68%
    12:00 +21°C° 0.1 mm 5 mps 744 mmHg 64%
    13:00 +21°C° 0.1 mm 5 mps 744 mmHg 61%
    14:00 +22°C° 0.1 mm 5 mps 744 mmHg 57%
    15:00 +22°C° 0 mm 4 mps 744 mmHg 57%
    16:00 +22°C° 0 mm 4 mps 744 mmHg 57%
    17:00 +22°C° 0 mm 3 mps 744 mmHg 58%
    18:00 +20°C° 0.1 mm 3 mps 744 mmHg 65%
    19:00 +19°C° 0.1 mm 3 mps 744 mmHg 73%
    20:00 +17°C° 0.1 mm 2 mps 744 mmHg 80%
    21:00 +16°C° 0 mm 3 mps 744 mmHg 84%
    22:00 +14°C° 0 mm 3 mps 744 mmHg 87%
    23:00 +13°C° 0 mm 3 mps 745 mmHg 91%

    Tomorrow, 26 May, Sunday

    Time Temperature Precipitation Wind Pressure Humidity
    00:00 +12°C° 0 mm 3 mps 745 mmHg 92%
    01:00 +13°C° 0 mm 2 mps 745 mmHg 93%
    02:00 +12°C° 0 mm 2 mps 746 mmHg 94%
    03:00 +12°C° 0 mm 2 mps 746 mmHg 94%
    04:00 +10°C° 0 mm 2 mps 746 mmHg 94%
    05:00 +10°C° 0 mm 2 mps 746 mmHg 94%
    06:00 +12°C° 0 mm 3 mps 746 mmHg 88%
    07:00 +13°C° 0 mm 3 mps 746 mmHg 82%
    08:00 +15°C° 0 mm 4 mps 746 mmHg 76%
    09:00 +17°C° 0 mm 4 mps 746 mmHg 73%
    10:00 +17°C° 0 mm 5 mps 746 mmHg 69%
    11:00 +19°C° 0 mm 5 mps 746 mmHg 65%
    12:00 +20°C° 0 mm 5 mps 746 mmHg 63%
    13:00 +20°C° 0 mm 5 mps 745 mmHg 61%
    14:00 +21°C° 0 mm 5 mps 745 mmHg 59%
    15:00 +21°C° 0 mm 5 mps 745 mmHg 60%
    16:00 +21°C° 0 mm 5 mps 745 mmHg 61%
    17:00 +21°C° 0 mm 5 mps 745 mmHg 62%
    18:00 +19°C° 0 mm 4 mps 745 mmHg 67%
    19:00 +18°C° 0 mm 3 mps 745 mmHg 73%
    20:00 +17°C° 0 mm 2 mps 745 mmHg 78%
    21:00 +16°C° 0 mm 2 mps 745 mmHg 79%
    22:00 +15°C° 0 mm 2 mps 745 mmHg 80%
    23:00 +14°C° 0 mm 2 mps 745 mmHg 81%

    Day after tomorrow, 27 May, Monday

    Time Temperature Precipitation Wind Pressure Humidity
    00:00 +14°C° 0 mm 2 mps 745 mmHg 82%
    01:00 +13°C° 0 mm 3 mps 745 mmHg 83%
    02:00 +13°C° 0 mm 3 mps 745 mmHg 84%
    03:00 +12°C° 0 mm 3 mps 745 mmHg 86%
    04:00 +12°C° 0 mm 3 mps 745 mmHg 88%
    05:00 +12°C° 0 mm 3 mps 745 mmHg 90%
    06:00 +14°C° 0 mm 3 mps 745 mmHg 86%
    07:00 +17°C° 0 mm 3 mps 745 mmHg 82%
    08:00 +19°C° 0 mm 3 mps 746 mmHg 78%
    09:00 +20°C° 0 mm 4 mps 745 mmHg 73%
    10:00 +21°C° 0 mm 4 mps 745 mmHg 68%
    11:00 +23°C° 0 mm 4 mps 745 mmHg 63%
    12:00 +25°C° 0 mm 5 mps 745 mmHg 61%
    13:00 +25°C° 0 mm 5 mps 745 mmHg 58%
    14:00 +26°C° 0 mm 5 mps 744 mmHg 56%
    15:00 +25°C° 0.2 mm 5 mps 744 mmHg 61%
    16:00 +25°C° 0.2 mm 5 mps 744 mmHg 67%
    17:00 +23°C° 0.2 mm 4 mps 744 mmHg 72%
    18:00 +22°C° 0.1 mm 4 mps 744 mmHg 77%
    19:00 +21°C° 0.1 mm 4 mps 744 mmHg 82%
    20:00 +20°C° 0.1 mm 3 mps 744 mmHg 87%
    21:00 +19°C° 0 mm 3 mps 744 mmHg 88%
    22:00 +19°C° 0 mm 3 mps 744 mmHg 88%
    23:00 +18°C° 0 mm 3 mps 744 mmHg 88%

    28 May, Tuesday

    Time Temperature Precipitation Wind Pressure Humidity
    00:00 +18°C° 0 mm 3 mps 744 mmHg 87%
    01:00 +18°C° 0 mm 3 mps 744 mmHg 86%
    02:00 +18°C° 0 mm 2 mps 744 mmHg 86%
    03:00 +17°C° 0 mm 2 mps 744 mmHg 87%
    04:00 +17°C° 0 mm 2 mps 743 mmHg 88%
    05:00 +17°C° 0 mm 2 mps 743 mmHg 89%
    06:00 +17°C° 0.3 mm 2 mps 743 mmHg 89%
    07:00 +18°C° 0.3 mm 3 mps 743 mmHg 88%
    08:00 +19°C° 0.3 mm 4 mps 743 mmHg 88%
    09:00 +20°C° 0.5 mm 4 mps 743 mmHg 85%
    10:00 +21°C° 0.5 mm 4 mps 743 mmHg 82%
    11:00 +22°C° 0.5 mm 5 mps 742 mmHg 79%
    12:00 +23°C° 0.5 mm 5 mps 742 mmHg 76%
    13:00 +25°C° 0.5 mm 5 mps 741 mmHg 72%
    14:00 +26°C° 0.5 mm 5 mps 741 mmHg 69%
    15:00 +26°C° 0.3 mm 4 mps 741 mmHg 71%
    16:00 +26°C° 0.3 mm 4 mps 741 mmHg 74%
    17:00 +26°C° 0.3 mm 3 mps 740 mmHg 76%
    18:00 +24°C° 0.9 mm 3 mps 740 mmHg 81%
    19:00 +21°C° 0.9 mm 2 mps 740 mmHg 85%
    20:00 +19°C° 0.9 mm 2 mps 740 mmHg 90%
    21:00 +18°C° 0 mm 2 mps 740 mmHg 90%
    22:00 +18°C° 0 mm 2 mps 739 mmHg 91%
    23:00 +18°C° 0 mm 3 mps 739 mmHg 92%

    29 May, Wednesday

    Time Temperature Precipitation Wind Pressure Humidity
    00:00 +18°C° 0.1 mm 2 mps 739 mmHg 93%
    01:00 +18°C° 0.1 mm 2 mps 739 mmHg 94%
    02:00 +18°C° 0.1 mm 2 mps 738 mmHg 95%
    03:00 +17°C° 0.2 mm 2 mps 738 mmHg 94%
    04:00 +17°C° 0.2 mm 3 mps 738 mmHg 94%
    05:00 +17°C° 0.2 mm 3 mps 738 mmHg 93%
    06:00 +18°C° 0 mm 4 mps 738 mmHg 89%
    07:00 +19°C° 0 mm 4 mps 739 mmHg 86%
    08:00 +20°C° 0 mm 5 mps 739 mmHg 82%
    09:00 +21°C° 0.5 mm 5 mps 739 mmHg 80%
    10:00 +21°C° 0.5 mm 5 mps 740 mmHg 77%
    11:00 +22°C° 0.5 mm 5 mps 740 mmHg 74%
    12:00 +22°C° 0.7 mm 5 mps 740 mmHg 74%
    13:00 +23°C° 0.7 mm 5 mps 740 mmHg 73%
    14:00 +23°C° 0.7 mm 5 mps 741 mmHg 72%
    15:00 +22°C° 0.9 mm 5 mps 741 mmHg 75%
    16:00 +21°C° 0.9 mm 5 mps 742 mmHg 79%
    17:00 +21°C° 0.9 mm 5 mps 742 mmHg 82%
    18:00 +19°C° 0.1 mm 5 mps 743 mmHg 83%
    19:00 +16°C° 0.1 mm 6 mps 744 mmHg 85%
    20:00 +14°C° 0.1 mm 6 mps 745 mmHg 86%
    21:00 +13°C° 0 mm 6 mps 746 mmHg 85%
    22:00 +11°C° 0 mm 6 mps 747 mmHg 84%
    23:00 +10°C° 0 mm 6 mps 747 mmHg 82%

    30 May, Thursday

    Time Temperature Precipitation Wind Pressure Humidity
    00:00 +9°C° 0 mm 5 mps 748 mmHg 84%
    01:00 +10°C° 0 mm 4 mps 748 mmHg 85%
    02:00 +9°C° 0 mm 3 mps 749 mmHg 86%
    03:00 +9°C° 0 mm 3 mps 750 mmHg 85%
    04:00 +8°C° 0 mm 3 mps 750 mmHg 84%
    05:00 +8°C° 0 mm 3 mps 751 mmHg 83%
    06:00 +9°C° 0 mm 3 mps 751 mmHg 79%
    07:00 +10°C° 0 mm 3 mps 752 mmHg 76%
    08:00 +10°C° 0 mm 3 mps 752 mmHg 73%
    09:00 +11°C° 0 mm 3 mps 752 mmHg 70%
    10:00 +12°C° 0 mm 3 mps 753 mmHg 68%
    11:00 +13°C° 0 mm 3 mps 753 mmHg 66%
    12:00 +14°C° 0 mm 3 mps 753 mmHg 64%
    13:00 +16°C° 0 mm 3 mps 753 mmHg 62%
    14:00 +17°C° 0 mm 3 mps 753 mmHg 59%
    15:00 +17°C° 0 mm 3 mps 752 mmHg 59%
    16:00 +17°C° 0 mm 3 mps 752 mmHg 58%
    17:00 +17°C° 0 mm 3 mps 752 mmHg 58%
    18:00 +16°C° 0 mm 2 mps 752 mmHg 63%
    19:00 +15°C° 0 mm 2 mps 752 mmHg 68%
    20:00 +14°C° 0 mm 1 mps 752 mmHg 72%
    21:00 +13°C° 0 mm 1 mps 752 mmHg 71%
    22:00 +13°C° 0 mm 1 mps 751 mmHg 69%
    23:00 +12°C° 0 mm 1 mps 751 mmHg 67%
    Show more